Wind_Speed
31 31 31 30 30 29 31 40 44 47 56 61 61 60 57 55 52 49 49 48 44 41 42 41 40 36 31 26 24 20 19 21 28 19 13 11 9 9 9 12 22 27 28 27 27
35 34 35 36 36 35 35 37 44 48 51 61 64 63 63 59 57 53 51 51 48 45 44 45 46 42 35 32 29 24 24 22 19 22 15 11 10 9 9 13 23 24 23 24 24
40 40 41 41 41 42 41 41 41 48 51 55 64 64 67 64 61 58 55 52 51 50 49 49 48 48 43 35 35 31 30 26 22 19 18 15 13 14 16 19 22 15 19 21 20
45 46 47 47 47 47 47 47 46 46 51 55 59 65 65 68 64 64 62 59 56 54 54 52 50 51 45 39 41 37 36 30 27 23 21 21 17 14 16 19 9 12 16 17 17
44 47 52 54 54 53 52 52 53 52 51 54 58 63 66 68 69 68 68 64 61 59 56 58 53 50 48 43 42 40 37 35 31 28 26 24 21 19 17 14 12 8 11 12 13
46 53 55 58 59 59 58 58 57 57 57 56 58 60 65 65 69 72 72 70 67 64 60 56 56 55 52 49 48 44 42 38 34 31 29 28 24 22 18 13 9 7 6 8 10
46 55 60 59 58 61 63 63 62 62 61 62 61 62 63 64 66 71 73 76 73 70 67 63 58 58 57 54 52 50 48 42 40 36 32 29 26 26 21 19 13 9 3 5 8
46 46 40 48 55 60 60 66 67 67 66 66 67 65 63 65 65 69 71 73 76 76 73 69 66 62 59 57 55 52 50 48 45 42 39 34 30 27 23 21 17 13 6 6 5
44 46 35 34 40 50 63 63 64 70 71 71 71 72 68 66 67 67 71 72 74 74 76 74 72 68 64 63 59 53 51 49 48 44 40 36 31 30 25 23 20 18 12 9 10
43 42 36 31 31 42 50 63 66 63 69 74 76 75 75 73 70 70 70 72 74 73 75 76 74 74 71 66 61 60 56 52 49 47 43 39 35 33 29 27 25 22 21 14 12
47 44 38 32 30 20 38 51 63 69 68 69 74 79 79 78 77 74 73 72 73 74 72 76 77 75 76 74 73 69 62 57 52 48 44 41 36 34 32 31 31 26 27 19 15
45 39 44 37 27 25 24 30 49 61 72 74 73 73 82 83 82 82 78 75 72 72 76 75 73 78 79 79 78 71 67 63 59 54 50 46 40 38 37 36 37 32 29 25 20
43 37 44 45 34 28 29 32 37 47 59 70 78 77 77 84 88 86 85 81 76 74 73 75 78 79 79 79 78 75 70 68 62 59 56 51 44 40 39 42 41 36 30 30 24
50 38 41 41 39 33 31 32 39 46 52 61 68 78 83 84 89 92 90 88 83 79 75 74 77 77 75 76 77 77 76 74 70 66 60 56 49 38 51 43 44 41 38 33 29
46 34 39 41 41 22 27 37 39 47 54 51 62 69 83 87 88 93 95 92 90 87 82 76 76 72 73 75 75 74 75 72 68 64 64 60 55 49 43 46 45 44 40 36 34
46 37 41 46 40 38 34 41 45 48 53 52 64 69 74 81 90 90 96 97 95 91 86 83 80 74 69 72 73 75 71 66 65 66 62 59 55 59 56 47 47 48 42 37 35
49 43 41 44 47 46 35 43 41 40 44 52 62 68 73 76 84 90 93 100 100 96 93 89 82 77 73 70 70 73 66 64 63 60 55 56 57 58 53 46 48 49 45 39 37
56 48 44 45 50 52 41 47 39 36 34 45 55 67 72 73 79 86 92 97 104 100 97 93 90 81 77 70 66 65 65 63 59 59 55 56 56 54 53 48 52 51 49 44 44
59 55 49 50 52 55 49 51 38 33 32 35 47 57 68 77 77 81 87 93 99 105 102 99 94 90 84 78 73 68 62 56 58 61 61 58 56 59 53 59 69 45 50 48 46
61 58 54 52 55 61 55 57 41 28 31 35 39 48 59 72 79 79 82 86 94 104 107 103 96 92 88 83 76 72 62 65 57 57 56 56 55 57 55 58 55 48 51 51 49
63 59 58 56 58 61 58 61 45 30 24 30 37 45 50 59 74 79 79 79 88 97 109 105 101 97 95 86 79 73 68 62 57 53 52 56 58 59 58 57 56 52 52 50 49
63 64 60 60 62 62 63 62 48 33 25 25 31 41 47 53 61 75 79 78 81 91 104 109 104 102 94 90 85 82 74 66 58 51 53 57 60 59 60 60 58 57 46 46 49
63 65 61 61 63 63 64 65 49 34 28 25 27 36 43 48 55 63 75 82 81 87 96 107 107 105 100 96 94 89 79 72 64 62 60 55 51 54 58 59 58 52 50 51 49
66 66 65 63 65 65 65 66 48 34 29 26 27 33 41 45 52 58 68 80 82 83 92 103 111 109 105 103 97 90 82 75 69 63 61 56 57 56 56 55 52 54 56 54 51
67 65 66 65 69 69 68 66 45 34 32 31 31 33 37 44 51 58 66 75 84 85 91 100 105 112 113 108 98 93 90 85 75 68 66 63 60 54 55 52 54 55 56 56 52
68 67 68 67 69 70 69 62 46 35 34 34 38 37 41 45 49 54 63 73 81 88 89 95 104 111 112 104 100 94 91 85 79 74 71 68 64 57 51 48 49 53 59 57 54
70 70 69 69 70 73 70 55 47 43 38 35 38 40 45 38 44 51 60 69 75 86 92 92 100 107 110 109 106 101 94 91 85 79 74 72 70 55 40 43 48 50 54 57 55
Wind_Direction
260 257 252 248 243 237 231 227 223 220 218 219 219 219 219 219 222 222 221 214 212 211 214 217 221 220 215 212 218 224 223 216 225 220 216 218 243 269 288 320 350 359 7 17 34
259 256 253 249 244 240 235 230 227 224 219 219 222 222 222 220 221 224 221 220 213 214 213 215 217 220 212 211 215 211 225 230 226 209 203 213 231 250 285 314 350 348 2 13 32
260 256 251 247 245 240 237 233 230 227 225 221 221 223 222 222 220 222 223 223 220 213 216 216 222 224 222 210 215 210 219 229 233 226 221 225 237 260 287 308 337 353 7 11 23
264 260 254 247 243 240 237 234 231 229 228 225 223 222 222 223 222 219 223 225 226 223 217 218 220 223 222 213 214 209 223 222 227 228 233 240 249 260 286 300 349 358 360 11 14
267 261 256 251 245 239 236 234 232 230 228 227 226 224 223 221 222 223 222 223 226 227 225 221 221 223 222 213 211 217 217 225 223 224 230 236 247 260 270 288 302 338 350 7 4
270 265 261 254 248 242 238 234 232 230 230 229 227 225 224 224 221 223 224 224 225 226 227 224 222 222 222 221 216 219 220 222 225 225 228 231 241 256 269 267 275 310 337 343 350
289 279 272 266 257 248 241 237 233 231 228 229 231 227 224 223 224 223 222 224 225 225 228 228 225 226 228 225 225 221 218 220 222 223 226 231 235 247 259 265 264 269 262 336 331
314 302 284 275 259 250 248 240 235 233 231 228 228 230 228 223 224 224 224 223 224 227 226 229 228 228 228 228 225 224 223 222 225 223 225 228 235 236 247 258 258 252 242 261 298
323 320 308 291 263 249 243 244 239 233 231 230 228 227 228 227 225 225 224 224 223 225 228 226 227 227 230 230 229 228 228 223 220 222 227 232 236 239 246 252 247 248 236 251 259
325 327 324 310 286 254 243 239 240 237 234 231 230 228 227 227 227 225 225 224 224 224 226 227 226 226 226 229 229 229 230 229 225 226 227 229 235 241 241 246 243 237 245 238 248
317 331 332 324 311 292 247 238 234 238 237 235 232 230 228 227 226 227 226 224 224 224 225 226 227 226 225 225 228 229 231 231 231 233 234 231 226 233 238 239 242 237 242 235 240
321 328 340 329 302 283 271 248 236 234 236 236 234 231 228 227 226 225 226 226 224 223 224 226 227 227 226 226 229 231 232 235 235 233 237 238 236 236 240 235 239 238 236 237 236
327 323 336 342 316 276 262 256 246 240 236 235 234 233 231 226 225 225 223 225 224 223 224 223 226 228 227 228 230 230 230 233 237 237 237 235 237 237 246 237 236 238 233 241 238
328 321 332 333 333 289 256 263 255 247 241 234 234 232 231 229 224 224 223 222 223 223 223 223 224 226 229 230 230 230 231 233 234 236 237 239 235 234 240 233 231 235 235 234 240
331 322 331 334 344 305 296 298 282 264 250 236 236 231 230 230 226 223 223 222 221 221 221 222 225 224 227 229 231 231 231 232 235 234 233 233 232 215 229 232 235 237 234 230 236
331 322 326 338 330 328 305 302 284 267 258 245 236 232 229 229 228 224 223 222 221 221 220 220 223 223 224 228 229 231 230 231 232 233 233 232 234 234 237 236 236 237 234 232 235
333 327 327 331 333 331 313 316 299 276 255 242 236 231 230 228 226 226 223 221 221 219 218 219 221 222 223 226 228 232 231 230 231 233 231 233 234 232 235 239 240 236 235 233 232
332 329 321 329 333 333 321 324 307 286 260 243 235 231 227 227 226 225 224 222 220 219 218 218 218 219 221 222 226 229 228 228 228 229 228 228 227 228 224 211 235 232 232 231 233
333 331 325 329 333 337 329 330 315 282 263 249 236 232 228 226 223 224 224 223 221 218 217 216 216 216 218 218 222 226 226 225 223 226 225 225 222 225 225 223 228 228 229 229 231
332 331 327 330 332 335 334 334 321 295 265 252 241 232 228 226 224 222 222 222 221 218 217 216 215 216 217 218 220 224 219 224 222 225 227 228 226 229 229 229 230 225 227 227 226
329 331 330 332 334 334 336 336 323 306 278 252 241 235 229 225 224 222 219 219 219 218 216 215 213 214 216 216 218 221 224 225 219 220 222 223 223 226 228 229 230 227 224 224 225
327 330 329 331 334 334 336 334 325 308 285 264 247 234 230 224 223 221 218 217 218 217 215 213 213 213 214 213 215 217 218 219 218 218 223 222 222 222 224 227 225 226 221 223 224
327 330 330 330 330 335 336 333 325 306 288 268 250 239 232 227 221 219 217 216 215 215 212 213 212 213 212 213 213 214 214 217 216 213 218 219 220 226 225 223 224 221 218 220 222
328 333 329 330 330 335 334 333 324 308 288 273 257 242 236 229 223 217 215 214 213 212 212 211 211 212 211 213 211 212 213 215 217 217 222 222 220 221 224 221 221 220 217 218 218
329 331 330 330 331 333 333 333 322 301 290 274 264 251 240 234 225 217 214 213 212 210 211 209 210 211 212 214 210 210 209 211 213 213 220 224 225 219 223 220 218 213 218 218 218
331 329 328 329 330 332 333 330 320 303 290 273 268 259 244 233 227 219 215 213 211 210 210 208 209 211 213 212 211 211 210 213 210 212 218 224 225 219 217 219 218 213 215 217 218
330 328 327 328 330 333 333 329 319 307 296 284 272 261 250 239 227 222 217 213 210 210 209 208 208 210 210 209 210 209 208 210 209 211 216 222 228 222 216 221 220 214 215 219 220
Height
10902 10904 10905 10906 10908 10909 10910 10911 10914 10918 10923 10927 10934 10939 10946 10951 10956 10961 10966 10974 10981 10987 10992 10996 11001 11006 11010 11014 11017 11022 11027 11029 11029 11031 11033 11034 11035 11036 11035 11034 11034 11031 11028 11025 11020
10893 10894 10896 10897 10899 10901 10904 10905 10906 10909 10913 10919 10924 10930 10937 10943 10950 10954 10960 10966 10974 10981 10986 10990 10994 11000 11005 11010 11013 11019 11022 11024 11027 11029 11031 11033 11035 11036 11036 11035 11035 11033 11031 11027 11023
10883 10883 10884 10885 10888 10890 10893 10897 10900 10901 10904 10908 10914 10920 10926 10933 10941 10947 10952 10958 10965 10973 10979 10984 10989 10996 11001 11006 11009 11013 11019 11021 11023 11027 11029 11031 11034 11035 11036 11036 11037 11035 11033 11029 11026
10870 10870 10871 10872 10874 10876 10880 10884 10888 10892 10895 10899 10903 10909 10916 10923 10933 10938 10943 10950 10956 10963 10971 10977 10983 10990 10996 11001 11005 11007 11013 11017 11021 11023 11027 11030 11032 11034 11036 11036 11037 11036 11034 11031 11029
10856 10853 10853 10854 10858 10862 10866 10869 10874 10880 10885 10889 10893 10898 10905 10912 10922 10927 10934 10941 10947 10953 10962 10970 10977 10983 10989 10995 10999 11003 11005 11013 11017 11020 11024 11026 11030 11033 11035 11035 11036 11036 11035 11032 11031
10845 10839 10837 10837 10841 10845 10850 10854 10859 10865 10872 10876 10881 10887 10893 10902 10906 10914 10921 10929 10936 10942 10950 10959 10968 10975 10981 10987 10992 10997 11001 11006 11013 11017 11021 11024 11028 11030 11032 11035 11035 11036 11035 11033 11032
10831 10825 10823 10823 10826 10829 10833 10838 10843 10850 10855 10861 10867 10873 10880 10890 10894 10901 10909 10917 10924 10932 10939 10948 10958 10964 10969 10977 10984 10987 10994 10999 11006 11012 11017 11021 11023 11028 11030 11032 11034 11035 11034 11033 11032
10820 10811 10802 10800 10803 10809 10813 10818 10826 10833 10840 10845 10852 10859 10868 10875 10881 10887 10896 10904 10912 10919 10929 10938 10946 10952 10961 10966 10970 10979 10987 10994 10998 11005 11012 11016 11020 11025 11027 11030 11032 11032 11033 11032 11032
10810 10798 10791 10783 10782 10786 10792 10798 10806 10814 10821 10829 10835 10842 10853 10860 10869 10873 10881 10890 10900 10907 10915 10924 10933 10942 10949 10953 10962 10971 10977 10986 10992 10999 11005 11012 11017 11020 11024 11026 11029 11029 11031 11030 11030
10801 10791 10782 10775 10768 10768 10772 10778 10787 10794 10801 10809 10817 10826 10835 10844 10853 10861 10867 10876 10885 10895 10902 10912 10920 10930 10937 10944 10954 10957 10967 10976 10985 10992 10999 11008 11013 11017 11021 11023 11025 11027 11028 11028 11029
10794 10784 10775 10767 10761 10756 10756 10761 10769 10777 10782 10789 10797 10808 10817 10826 10836 10846 10853 10862 10872 10882 10891 10896 10907 10919 10923 10930 10934 10943 10957 10968 10976 10985 10992 11001 11009 11012 11017 11019 11022 11023 11024 11026 11027
10787 10777 10767 10758 10754 10751 10748 10748 10751 10756 10762 10768 10775 10784 10794 10807 10817 10827 10837 10848 10859 10868 10874 10885 10896 10900 10908 10916 10924 10940 10950 10958 10965 10978 10984 10993 11003 11008 11011 11013 11016 11019 11020 11022 11023
10779 10770 10760 10750 10743 10740 10739 10739 10739 10740 10742 10747 10754 10764 10772 10783 10795 10808 10819 10830 10844 10852 10862 10872 10875 10881 10895 10905 10917 10929 10938 10946 10956 10966 10974 10985 10995 11000 11001 11004 11009 11014 11016 11018 11019
10771 10764 10754 10742 10731 10726 10725 10727 10727 10727 10726 10731 10736 10744 10750 10760 10772 10785 10799 10812 10826 10837 10847 10856 10859 10873 10886 10895 10903 10914 10925 10933 10945 10956 10967 10975 10985 10995 10989 10992 11001 11006 11010 11013 11015
10760 10753 10745 10735 10724 10717 10717 10714 10710 10708 10706 10723 10719 10719 10729 10739 10750 10763 10777 10793 10805 10817 10830 10844 10849 10863 10873 10882 10890 10902 10911 10923 10934 10945 10952 10961 10972 10978 10979 10989 10995 10999 11004 11009 11011
10750 10742 10735 10725 10717 10710 10704 10697 10691 10686 10687 10695 10691 10701 10707 10718 10729 10741 10757 10770 10785 10801 10816 10825 10835 10850 10860 10865 10877 10883 10899 10915 10923 10930 10940 10953 10961 10966 10975 10982 10987 10992 10998 11003 11007
10741 10733 10725 10715 10705 10696 10687 10678 10668 10662 10662 10667 10670 10676 10686 10696 10707 10721 10734 10748 10764 10780 10798 10809 10826 10837 10848 10857 10866 10873 10894 10903 10911 10920 10937 10942 10948 10957 10965 10977 10978 10984 10990 10995 11000
10729 10721 10714 10703 10693 10682 10671 10661 10650 10643 10642 10643 10647 10652 10663 10675 10687 10698 10711 10726 10742 10762 10777 10794 10806 10825 10835 10848 10857 10865 10878 10891 10904 10911 10923 10928 10935 10942 10954 10966 10960 10971 10980 10986 10991
10718 10710 10701 10692 10680 10668 10656 10645 10634 10628 10626 10627 10629 10633 10641 10650 10664 10675 10687 10705 10721 10740 10758 10771 10793 10804 10817 10830 10841 10853 10867 10880 10888 10895 10904 10913 10924 10927 10939 10948 10952 10964 10969 10975 10982
10707 10698 10689 10679 10667 10655 10641 10629 10617 10612 10610 10610 10613 10616 10620 10629 10641 10652 10666 10684 10698 10719 10734 10752 10778 10794 10805 10817 10831 10840 10858 10862 10878 10885 10896 10905 10915 10922 10929 10937 10944 10953 10958 10965 10972
10695 10685 10675 10665 10655 10643 10629 10616 10604 10598 10595 10595 10597 10600 10605 10611 10619 10633 10647 10661 10675 10694 10712 10739 10755 10773 10787 10807 10824 10835 10845 10857 10867 10874 10883 10892 10902 10907 10917 10925 10933 10940 10947 10956 10964
10683 10673 10662 10653 10642 10629 10617 10605 10593 10586 10583 10582 10583 10585 10588 10596 10601 10612 10628 10644 10655 10670 10692 10715 10738 10750 10777 10794 10808 10816 10831 10844 10857 10868 10874 10878 10884 10897 10902 10911 10920 10925 10943 10952 10957
10672 10661 10651 10640 10630 10618 10605 10594 10582 10575 10570 10570 10571 10572 10574 10580 10586 10594 10610 10621 10635 10651 10674 10696 10721 10737 10755 10772 10784 10799 10819 10833 10846 10850 10857 10869 10882 10884 10896 10901 10910 10926 10937 10940 10948
10659 10649 10636 10627 10616 10606 10595 10582 10571 10563 10559 10558 10558 10558 10561 10565 10571 10581 10590 10602 10618 10636 10650 10671 10692 10714 10737 10746 10767 10792 10810 10824 10836 10845 10851 10861 10866 10874 10880 10891 10904 10915 10922 10930 10937
10648 10637 10626 10616 10602 10590 10579 10569 10560 10552 10546 10544 10543 10543 10547 10551 10555 10563 10573 10584 10598 10614 10630 10653 10676 10691 10704 10728 10754 10775 10789 10803 10822 10835 10839 10846 10855 10868 10874 10886 10891 10901 10911 10920 10928
10636 10625 10612 10602 10590 10580 10566 10554 10545 10537 10533 10530 10526 10529 10528 10531 10539 10549 10559 10567 10581 10598 10614 10634 10653 10669 10693 10727 10745 10764 10781 10797 10810 10820 10828 10834 10843 10855 10867 10877 10884 10891 10898 10910 10920
10623 10613 10602 10590 10577 10566 10553 10540 10529 10521 10517 10515 10512 10509 10509 10519 10526 10534 10542 10553 10567 10580 10597 10615 10633 10651 10677 10702 10720 10743 10767 10780 10794 10808 10818 10824 10829 10848 10866 10870 10874 10883 10892 10900 10910